QPF
0.04 0.05 0.05 0.08 0.12 0.17 0.17 0.17 0.13 0.11 0.08 0.06 0.07 0.09 0.08 0.06 0.06 0.04 0.03 0.01 0.01 0.01 0.01 0.01 0.01 0.00 0.00 0.01 0.01 0.01 0.01 0.01 0.01 0.01 0.01 0.01 0.01 0.01 0.01 0.02 0.01 0.01 0.02
0.02 0.04 0.04 0.05 0.08 0.11 0.15 0.17 0.14 0.11 0.10 0.10 0.10 0.11 0.10 0.07 0.06 0.04 0.02 0.01 0.01 0.00 0.00 0.01 0.01 0.00 0.00 0.00 0.00 0.01 0.01 0.01 0.01 0.01 0.01 0.01 0.01 0.01 0.01 0.01 0.01 0.02 0.01
0.02 0.02 0.03 0.04 0.05 0.08 0.12 0.14 0.11 0.11 0.11 0.13 0.12 0.11 0.10 0.09 0.06 0.03 0.02 0.01 0.01 0.00 0.00 0.01 0.01 0.00 0.00 0.00 0.00 0.01 0.01 0.01 0.00 0.00 0.01 0.01 0.01 0.01 0.01 0.00 0.01 0.02 0.02
0.01 0.01 0.02 0.03 0.05 0.08 0.11 0.14 0.15 0.14 0.14 0.14 0.14 0.12 0.11 0.08 0.05 0.02 0.02 0.02 0.01 0.01 0.01 0.01 0.01 0.00 0.00 0.00 0.00 0.00 0.01 0.01 0.00 0.00 0.00 0.00 0.00 0.01 0.01 0.01 0.01 0.01 0.01
0.00 0.01 0.01 0.03 0.05 0.06 0.10 0.11 0.14 0.14 0.14 0.13 0.15 0.14 0.12 0.09 0.05 0.03 0.02 0.01 0.01 0.01 0.01 0.00 0.00 0.00 0.00 0.00 0.00 0.00 0.00 0.00 0.00 0.00 0.00 0.00 0.00 0.00 0.01 0.02 0.02 0.02 0.01
0.00 0.01 0.01 0.02 0.03 0.03 0.07 0.08 0.10 0.10 0.10 0.11 0.13 0.11 0.08 0.07 0.04 0.03 0.02 0.01 0.01 0.00 0.00 0.00 0.00 0.00 0.00 0.00 0.00 0.00 0.00 0.00 0.00 0.00 0.00 0.00 0.00 0.00 0.00 0.01 0.02 0.02 0.01
0.00 0.00 0.01 0.01 0.03 0.03 0.04 0.05 0.08 0.08 0.08 0.10 0.11 0.10 0.08 0.07 0.05 0.03 0.02 0.02 0.01 0.00 0.00 0.00 0.00 0.00 0.00 0.00 0.00 0.00 0.00 0.00 0.00 0.00 0.00 0.00 0.00 0.00 0.00 0.00 0.01 0.01 0.01
0.00 0.00 0.01 0.03 0.05 0.04 0.04 0.06 0.07 0.07 0.07 0.09 0.10 0.09 0.08 0.06 0.05 0.04 0.03 0.02 0.01 0.01 0.00 0.00 0.00 0.00 0.00 0.00 0.00 0.00 0.00 0.00 0.00 0.00 0.00 0.00 0.00 0.00 0.00 0.00 0.00 0.01 0.01
0.01 0.01 0.01 0.02 0.04 0.04 0.04 0.05 0.06 0.07 0.05 0.05 0.06 0.06 0.07 0.07 0.06 0.05 0.04 0.03 0.02 0.01 0.01 0.01 0.00 0.00 0.00 0.00 0.00 0.00 0.00 0.00 0.00 0.00 0.00 0.00 0.00 0.00 0.00 0.00 0.00 0.00 0.00
0.00 0.01 0.01 0.00 0.02 0.04 0.05 0.05 0.08 0.08 0.06 0.05 0.05 0.05 0.06 0.08 0.09 0.09 0.06 0.04 0.04 0.02 0.02 0.01 0.01 0.00 0.00 0.00 0.00 0.00 0.00 0.00 0.00 0.00 0.00 0.00 0.00 0.00 0.00 0.00 0.00 0.00 0.00
0.00 0.00 0.00 0.00 0.01 0.03 0.04 0.03 0.06 0.10 0.07 0.06 0.06 0.06 0.06 0.06 0.07 0.09 0.07 0.06 0.07 0.04 0.03 0.02 0.02 0.01 0.01 0.01 0.01 0.01 0.01 0.00 0.00 0.00 0.00 0.00 0.00 0.00 0.00 0.00 0.00 0.00 0.00
0.00 0.00 0.00 0.00 0.00 0.01 0.01 0.02 0.03 0.08 0.09 0.09 0.09 0.06 0.06 0.06 0.07 0.07 0.07 0.07 0.07 0.07 0.06 0.06 0.05 0.03 0.02 0.02 0.02 0.02 0.01 0.01 0.01 0.00 0.00 0.00 0.00 0.00 0.00 0.00 0.00 0.00 0.00
0.01 0.00 0.00 0.00 0.01 0.01 0.01 0.02 0.03 0.08 0.14 0.12 0.10 0.09 0.07 0.06 0.07 0.07 0.07 0.07 0.09 0.09 0.07 0.06 0.06 0.04 0.03 0.02 0.02 0.02 0.02 0.02 0.01 0.01 0.01 0.01 0.01 0.01 0.01 0.01 0.00 0.00 0.00
0.01 0.01 0.01 0.00 0.01 0.01 0.01 0.02 0.04 0.06 0.10 0.11 0.10 0.08 0.07 0.06 0.06 0.06 0.07 0.07 0.09 0.10 0.09 0.08 0.07 0.05 0.04 0.03 0.02 0.02 0.02 0.02 0.01 0.01 0.01 0.01 0.01 0.01 0.02 0.02 0.02 0.01 0.01
0.01 0.01 0.01 0.01 0.00 0.01 0.01 0.01 0.02 0.05 0.08 0.08 0.10 0.09 0.08 0.07 0.07 0.05 0.06 0.07 0.07 0.09 0.10 0.09 0.07 0.06 0.05 0.04 0.03 0.03 0.03 0.02 0.03 0.03 0.03 0.03 0.02 0.02 0.02 0.02 0.02 0.03 0.03
0.00 0.00 0.01 0.01 0.01 0.01 0.01 0.01 0.01 0.03 0.04 0.06 0.08 0.07 0.07 0.08 0.08 0.08 0.08 0.07 0.07 0.09 0.10 0.10 0.09 0.08 0.06 0.06 0.06 0.06 0.05 0.05 0.05 0.05 0.05 0.03 0.03 0.03 0.02 0.02 0.02 0.02 0.03
0.01 0.01 0.01 0.01 0.01 0.01 0.01 0.01 0.02 0.03 0.04 0.05 0.07 0.08 0.07 0.07 0.06 0.07 0.08 0.08 0.08 0.09 0.10 0.10 0.10 0.10 0.09 0.08 0.06 0.05 0.05 0.05 0.05 0.05 0.05 0.04 0.03 0.03 0.02 0.03 0.03 0.02 0.03
0.01 0.02 0.02 0.02 0.01 0.02 0.02 0.02 0.04 0.04 0.05 0.05 0.06 0.06 0.05 0.06 0.06 0.06 0.06 0.06 0.07 0.09 0.11 0.11 0.10 0.08 0.08 0.08 0.06 0.06 0.06 0.07 0.07 0.07 0.06 0.06 0.05 0.04 0.03 0.04 0.04 0.03 0.03
0.02 0.03 0.03 0.03 0.02 0.02 0.02 0.02 0.03 0.04 0.05 0.07 0.06 0.06 0.05 0.04 0.05 0.06 0.07 0.08 0.09 0.10 0.09 0.08 0.07 0.06 0.06 0.06 0.07 0.07 0.07 0.07 0.08 0.08 0.07 0.06 0.05 0.06 0.05 0.04 0.04 0.05 0.05
0.02 0.02 0.03 0.03 0.03 0.03 0.03 0.03 0.04 0.03 0.03 0.04 0.05 0.04 0.04 0.04 0.04 0.05 0.06 0.07 0.06 0.06 0.06 0.06 0.07 0.07 0.06 0.06 0.07 0.08 0.07 0.08 0.09 0.08 0.07 0.06 0.05 0.05 0.05 0.05 0.05 0.05 0.05
0.02 0.02 0.02 0.03 0.04 0.04 0.03 0.03 0.03 0.03 0.03 0.03 0.03 0.03 0.03 0.04 0.04 0.04 0.04 0.04 0.05 0.05 0.05 0.05 0.06 0.06 0.07 0.07 0.07 0.08 0.08 0.10 0.11 0.11 0.10 0.08 0.08 0.08 0.08 0.08 0.08 0.09 0.09
0.02 0.02 0.03 0.03 0.03 0.03 0.02 0.02 0.02 0.02 0.02 0.02 0.02 0.01 0.01 0.01 0.02 0.02 0.03 0.02 0.02 0.03 0.03 0.03 0.03 0.03 0.04 0.04 0.05 0.06 0.07 0.08 0.10 0.12 0.11 0.10 0.11 0.09 0.08 0.07 0.06 0.06 0.06
0.01 0.01 0.01 0.01 0.01 0.01 0.02 0.02 0.02 0.02 0.01 0.01 0.01 0.01 0.01 0.01 0.01 0.01 0.01 0.01 0.01 0.01 0.01 0.01 0.01 0.01 0.01 0.02 0.02 0.02 0.03 0.04 0.04 0.05 0.06 0.05 0.05 0.04 0.03 0.03 0.03 0.02 0.02
0.01 0.01 0.01 0.00 0.00 0.01 0.01 0.01 0.02 0.02 0.02 0.01 0.01 0.01 0.00 0.00 0.00 0.00 0.00 0.01 0.01 0.01 0.01 0.01 0.01 0.01 0.01 0.01 0.02 0.01 0.01 0.01 0.01 0.01 0.01 0.01 0.01 0.01 0.01 0.01 0.01 0.00 0.00
0.02 0.01 0.01 0.00 0.00 0.00 0.01 0.01 0.01 0.00 0.01 0.01 0.01 0.01 0.01 0.00 0.00 0.00 0.00 0.00 0.00 0.01 0.02 0.02 0.03 0.03 0.03 0.03 0.02 0.01 0.01 0.01 0.01 0.01 0.01 0.01 0.01 0.01 0.01 0.01 0.01 0.01 0.01
0.02 0.01 0.01 0.01 0.01 0.00 0.00 0.00 0.00 0.00 0.00 0.00 0.00 0.00 0.00 0.00 0.00 0.00 0.00 0.00 0.00 0.01 0.02 0.03 0.03 0.03 0.03 0.02 0.02 0.02 0.02 0.02 0.02 0.02 0.02 0.02 0.02 0.01 0.01 0.01 0.01 0.01 0.00
MSLP
1007.49 1007.75 1008.07 1008.46 1008.92 1009.46 1010.08 1010.76 1011.48 1012.20 1012.89 1013.51 1014.05 1014.51 1014.89 1015.22 1015.53 1015.83 1016.15 1016.48 1016.81 1017.12 1017.40 1017.62 1017.79 1017.91 1018.00 1018.09 1018.20 1018.35 1018.55 1018.79 1019.05 1019.29 1019.50 1019.63 1019.68 1019.63 1019.51 1019.34 1019.16 1018.99 1018.87
1007.85 1008.05 1008.27 1008.53 1008.86 1009.26 1009.77 1010.38 1011.08 1011.83 1012.57 1013.28 1013.92 1014.45 1014.90 1015.26 1015.57 1015.85 1016.14 1016.45 1016.77 1017.09 1017.39 1017.65 1017.86 1018.01 1018.12 1018.20 1018.29 1018.40 1018.56 1018.76 1018.99 1019.23 1019.44 1019.60 1019.67 1019.66 1019.55 1019.38 1019.18 1018.98 1018.82
1008.15 1008.31 1008.45 1008.59 1008.77 1009.04 1009.43 1009.95 1010.61 1011.37 1012.18 1012.97 1013.71 1014.34 1014.86 1015.27 1015.60 1015.88 1016.15 1016.44 1016.74 1017.06 1017.38 1017.66 1017.90 1018.08 1018.21 1018.29 1018.36 1018.43 1018.54 1018.69 1018.88 1019.10 1019.31 1019.48 1019.58 1019.60 1019.54 1019.40 1019.21 1019.01 1018.83
1008.35 1008.49 1008.57 1008.62 1008.68 1008.82 1009.09 1009.53 1010.14 1010.90 1011.75 1012.63 1013.46 1014.20 1014.80 1015.28 1015.64 1015.92 1016.18 1016.44 1016.72 1017.03 1017.35 1017.66 1017.93 1018.14 1018.29 1018.38 1018.43 1018.47 1018.54 1018.64 1018.78 1018.96 1019.16 1019.34 1019.46 1019.53 1019.50 1019.41 1019.25 1019.07 1018.89
1008.42 1008.57 1008.64 1008.63 1008.61 1008.65 1008.83 1009.19 1009.76 1010.51 1011.39 1012.32 1013.24 1014.06 1014.74 1015.27 1015.66 1015.96 1016.20 1016.44 1016.70 1016.99 1017.32 1017.64 1017.94 1018.18 1018.35 1018.46 1018.51 1018.54 1018.56 1018.62 1018.73 1018.87 1019.04 1019.21 1019.36 1019.45 1019.47 1019.42 1019.30 1019.15 1018.99
1008.39 1008.59 1008.67 1008.65 1008.60 1008.59 1008.70 1009.00 1009.53 1010.26 1011.15 1012.12 1013.08 1013.96 1014.70 1015.27 1015.69 1015.98 1016.21 1016.42 1016.65 1016.93 1017.24 1017.58 1017.90 1018.17 1018.38 1018.51 1018.58 1018.60 1018.62 1018.65 1018.71 1018.82 1018.96 1019.12 1019.27 1019.38 1019.43 1019.42 1019.34 1019.22 1019.08
1008.29 1008.56 1008.69 1008.72 1008.68 1008.66 1008.75 1009.01 1009.50 1010.21 1011.09 1012.06 1013.04 1013.94 1014.70 1015.29 1015.71 1015.99 1016.19 1016.37 1016.57 1016.82 1017.12 1017.45 1017.79 1018.09 1018.33 1018.50 1018.60 1018.64 1018.65 1018.67 1018.71 1018.79 1018.91 1019.05 1019.19 1019.31 1019.38 1019.39 1019.35 1019.26 1019.13
1008.16 1008.51 1008.73 1008.83 1008.84 1008.86 1008.96 1009.22 1009.69 1010.37 1011.22 1012.16 1013.12 1014.00 1014.75 1015.31 1015.71 1015.96 1016.13 1016.27 1016.43 1016.64 1016.92 1017.25 1017.59 1017.92 1018.20 1018.40 1018.53 1018.59 1018.62 1018.64 1018.67 1018.73 1018.83 1018.95 1019.08 1019.20 1019.28 1019.31 1019.28 1019.21 1019.11
1008.01 1008.45 1008.77 1008.96 1009.07 1009.16 1009.31 1009.59 1010.05 1010.70 1011.50 1012.40 1013.29 1014.12 1014.81 1015.33 1015.68 1015.89 1016.01 1016.11 1016.23 1016.41 1016.66 1016.97 1017.32 1017.65 1017.95 1018.18 1018.34 1018.44 1018.48 1018.51 1018.55 1018.60 1018.69 1018.80 1018.92 1019.03 1019.11 1019.15 1019.14 1019.08 1019.00
1007.85 1008.37 1008.78 1009.08 1009.30 1009.48 1009.70 1010.02 1010.49 1011.12 1011.87 1012.69 1013.50 1014.25 1014.86 1015.31 1015.60 1015.76 1015.84 1015.90 1015.98 1016.13 1016.36 1016.64 1016.98 1017.31 1017.61 1017.86 1018.04 1018.16 1018.23 1018.27 1018.31 1018.37 1018.45 1018.56 1018.67 1018.78 1018.86 1018.91 1018.91 1018.87 1018.79
1007.66 1008.24 1008.73 1009.13 1009.45 1009.73 1010.04 1010.41 1010.90 1011.51 1012.21 1012.95 1013.68 1014.33 1014.85 1015.23 1015.45 1015.57 1015.61 1015.64 1015.71 1015.83 1016.03 1016.30 1016.61 1016.93 1017.23 1017.47 1017.66 1017.78 1017.86 1017.92 1017.98 1018.04 1018.13 1018.24 1018.36 1018.47 1018.55 1018.60 1018.62 1018.59 1018.52
1007.43 1008.03 1008.58 1009.06 1009.47 1009.85 1010.24 1010.67 1011.18 1011.78 1012.43 1013.10 1013.74 1014.30 1014.74 1015.04 1015.22 1015.31 1015.34 1015.36 1015.42 1015.54 1015.73 1015.99 1016.28 1016.57 1016.85 1017.08 1017.25 1017.37 1017.45 1017.52 1017.59 1017.67 1017.76 1017.88 1018.01 1018.13 1018.22 1018.28 1018.30 1018.28 1018.23
1007.15 1007.75 1008.32 1008.84 1009.32 1009.78 1010.23 1010.72 1011.26 1011.85 1012.47 1013.08 1013.64 1014.12 1014.50 1014.75 1014.90 1014.98 1015.02 1015.07 1015.15 1015.29 1015.49 1015.75 1016.02 1016.29 1016.54 1016.74 1016.89 1016.99 1017.07 1017.13 1017.20 1017.30 1017.41 1017.54 1017.68 1017.81 1017.92 1017.99 1018.01 1018.00 1017.95
1006.83 1007.40 1007.97 1008.50 1009.02 1009.52 1010.03 1010.57 1011.13 1011.72 1012.31 1012.88 1013.38 1013.81 1014.14 1014.36 1014.51 1014.61 1014.69 1014.79 1014.92 1015.11 1015.34 1015.61 1015.88 1016.13 1016.35 1016.52 1016.64 1016.72 1016.78 1016.83 1016.91 1017.01 1017.13 1017.28 1017.44 1017.58 1017.69 1017.76 1017.79 1017.77 1017.72
1006.53 1007.05 1007.58 1008.10 1008.62 1009.14 1009.69 1010.25 1010.84 1011.43 1012.00 1012.54 1013.01 1013.40 1013.70 1013.92 1014.09 1014.23 1014.38 1014.54 1014.76 1015.01 1015.29 1015.59 1015.88 1016.13 1016.32 1016.46 1016.55 1016.60 1016.63 1016.68 1016.75 1016.85 1016.99 1017.15 1017.31 1017.46 1017.58 1017.64 1017.66 1017.63 1017.56
1006.31 1006.77 1007.24 1007.71 1008.21 1008.73 1009.29 1009.87 1010.47 1011.06 1011.62 1012.14 1012.59 1012.96 1013.26 1013.50 1013.71 1013.91 1014.13 1014.38 1014.68 1015.02 1015.37 1015.72 1016.03 1016.28 1016.47 1016.58 1016.64 1016.66 1016.67 1016.70 1016.76 1016.86 1017.00 1017.16 1017.33 1017.48 1017.58 1017.64 1017.63 1017.58 1017.48
1006.25 1006.63 1007.03 1007.45 1007.90 1008.41 1008.95 1009.53 1010.13 1010.73 1011.29 1011.80 1012.24 1012.61 1012.92 1013.18 1013.44 1013.70 1014.00 1014.34 1014.73 1015.15 1015.58 1015.98 1016.32 1016.60 1016.78 1016.88 1016.92 1016.92 1016.90 1016.91 1016.95 1017.04 1017.17 1017.32 1017.48 1017.61 1017.70 1017.73 1017.69 1017.60 1017.45
1006.39 1006.71 1007.03 1007.39 1007.79 1008.26 1008.79 1009.36 1009.96 1010.56 1011.12 1011.63 1012.07 1012.44 1012.76 1013.06 1013.35 1013.67 1014.04 1014.46 1014.93 1015.43 1015.92 1016.38 1016.77 1017.06 1017.25 1017.35 1017.37 1017.34 1017.30 1017.28 1017.30 1017.36 1017.47 1017.60 1017.73 1017.84 1017.89 1017.88 1017.80 1017.66 1017.46
1006.76 1007.02 1007.28 1007.58 1007.93 1008.37 1008.87 1009.43 1010.03 1010.62 1011.18 1011.69 1012.14 1012.52 1012.86 1013.17 1013.50 1013.87 1014.29 1014.77 1015.31 1015.87 1016.42 1016.92 1017.34 1017.66 1017.86 1017.95 1017.96 1017.91 1017.84 1017.79 1017.76 1017.79 1017.85 1017.95 1018.04 1018.10 1018.11 1018.06 1017.92 1017.72 1017.48
1007.34 1007.55 1007.76 1008.01 1008.33 1008.73 1009.21 1009.76 1010.35 1010.94 1011.51 1012.02 1012.47 1012.87 1013.22 1013.55 1013.90 1014.30 1014.76 1015.28 1015.85 1016.45 1017.04 1017.57 1018.02 1018.35 1018.56 1018.65 1018.64 1018.57 1018.47 1018.37 1018.30 1018.27 1018.28 1018.31 1018.35 1018.36 1018.32 1018.21 1018.03 1017.78 1017.48
1008.06 1008.25 1008.43 1008.65 1008.94 1009.32 1009.78 1010.32 1010.91 1011.50 1012.07 1012.59 1013.04 1013.45 1013.81 1014.16 1014.52 1014.93 1015.41 1015.95 1016.54 1017.16 1017.77 1018.32 1018.77 1019.12 1019.32 1019.40 1019.38 1019.27 1019.13 1018.97 1018.84 1018.74 1018.68 1018.65 1018.62 1018.57 1018.47 1018.32 1018.09 1017.80 1017.46
1008.87 1009.05 1009.23 1009.43 1009.70 1010.07 1010.52 1011.05 1011.63 1012.22 1012.79 1013.32 1013.78 1014.19 1014.56 1014.91 1015.29 1015.70 1016.18 1016.73 1017.32 1017.94 1018.55 1019.10 1019.56 1019.89 1020.09 1020.16 1020.10 1019.96 1019.77 1019.55 1019.35 1019.18 1019.04 1018.92 1018.83 1018.71 1018.57 1018.37 1018.12 1017.81 1017.45
1009.70 1009.89 1010.07 1010.27 1010.54 1010.90 1011.35 1011.87 1012.44 1013.03 1013.59 1014.11 1014.58 1014.99 1015.37 1015.73 1016.11 1016.52 1017.00 1017.53 1018.12 1018.72 1019.32 1019.85 1020.30 1020.62 1020.80 1020.85 1020.77 1020.59 1020.34 1020.06 1019.79 1019.54 1019.32 1019.13 1018.96 1018.80 1018.61 1018.39 1018.13 1017.81 1017.45
1010.50 1010.71 1010.90 1011.12 1011.40 1011.76 1012.20 1012.70 1013.26 1013.83 1014.38 1014.89 1015.36 1015.77 1016.14 1016.51 1016.88 1017.30 1017.76 1018.29 1018.85 1019.44 1020.01 1020.52 1020.95 1021.24 1021.40 1021.42 1021.31 1021.09 1020.80 1020.47 1020.13 1019.81 1019.52 1019.27 1019.05 1018.84 1018.64 1018.41 1018.15 1017.86 1017.52
1011.25 1011.49 1011.71 1011.95 1012.24 1012.59 1013.02 1013.51 1014.03 1014.57 1015.10 1015.59 1016.04 1016.44 1016.81 1017.17 1017.55 1017.96 1018.41 1018.92 1019.46 1020.02 1020.56 1021.05 1021.44 1021.71 1021.84 1021.84 1021.70 1021.45 1021.12 1020.75 1020.36 1020.00 1019.66 1019.37 1019.12 1018.89 1018.68 1018.47 1018.24 1017.98 1017.69
1011.97 1012.25 1012.50 1012.76 1013.05 1013.40 1013.81 1014.26 1014.74 1015.24 1015.72 1016.17 1016.59 1016.97 1017.33 1017.68 1018.06 1018.46 1018.91 1019.39 1019.91 1020.44 1020.94 1021.39 1021.74 1021.98 1022.09 1022.06 1021.90 1021.63 1021.29 1020.90 1020.50 1020.11 1019.76 1019.46 1019.20 1018.98 1018.79 1018.61 1018.42 1018.21 1017.98
Thickness
5767 5763 5758 5754 5749 5743 5740 5738 5737 5736 5734 5733 5732 5730 5730 5731 5732 5732 5730 5729 5729 5728 5728 5731 5728 5729 5730 5728 5728 5727 5725 5725 5726 5724 5722 5723 5724 5722 5721 5721 5720 5719 5717
5764 5759 5756 5753 5749 5744 5740 5737 5736 5736 5735 5734 5733 5732 5732 5731 5732 5731 5728 5728 5728 5727 5728 5728 5729 5729 5728 5727 5727 5726 5727 5727 5726 5725 5721 5717 5718 5719 5723 5721 5719 5720 5718
5764 5759 5756 5752 5749 5744 5740 5739 5737 5736 5735 5734 5733 5731 5729 5728 5727 5727 5727 5728 5727 5727 5727 5727 5729 5728 5730 5729 5726 5726 5724 5725 5726 5727 5724 5719 5716 5719 5721 5720 5720 5719 5719
5768 5762 5757 5753 5750 5746 5743 5740 5738 5736 5734 5733 5732 5730 5729 5727 5728 5728 5728 5727 5726 5726 5726 5726 5726 5727 5729 5727 5727 5727 5727 5724 5725 5725 5725 5724 5725 5719 5717 5719 5722 5720 5719
5770 5764 5759 5755 5752 5748 5744 5742 5739 5736 5734 5733 5732 5730 5730 5729 5730 5729 5727 5726 5726 5725 5726 5725 5725 5725 5728 5726 5726 5725 5725 5726 5726 5727 5725 5724 5722 5723 5719 5717 5719 5720 5721
5771 5766 5762 5757 5752 5750 5746 5743 5739 5736 5735 5733 5733 5731 5731 5730 5728 5726 5726 5726 5726 5726 5725 5725 5725 5725 5727 5725 5724 5723 5723 5724 5724 5725 5727 5725 5724 5723 5722 5718 5717 5718 5721
5772 5766 5761 5756 5752 5749 5746 5744 5739 5735 5735 5734 5732 5731 5731 5730 5728 5727 5727 5727 5728 5727 5725 5726 5724 5724 5724 5723 5723 5721 5723 5722 5720 5720 5723 5725 5725 5725 5724 5721 5720 5718 5720
5775 5769 5764 5759 5754 5751 5747 5744 5740 5736 5735 5734 5732 5731 5730 5730 5730 5729 5730 5728 5729 5729 5727 5725 5723 5722 5722 5722 5720 5722 5721 5720 5719 5720 5719 5720 5722 5723 5722 5720 5718 5715 5717
5776 5771 5767 5763 5758 5754 5749 5746 5741 5737 5735 5734 5733 5731 5730 5731 5731 5730 5728 5729 5728 5728 5726 5724 5723 5722 5721 5720 5719 5720 5718 5717 5717 5718 5716 5717 5719 5718 5719 5718 5717 5713 5710
5776 5773 5769 5765 5761 5757 5752 5748 5743 5738 5736 5735 5733 5732 5730 5730 5729 5728 5727 5727 5726 5725 5724 5723 5722 5721 5719 5718 5716 5717 5716 5714 5714 5714 5713 5712 5716 5716 5714 5714 5713 5712 5709
5776 5773 5770 5766 5762 5758 5753 5748 5744 5739 5736 5735 5734 5732 5731 5730 5728 5726 5726 5725 5724 5723 5722 5721 5720 5719 5718 5717 5715 5715 5714 5711 5711 5710 5709 5707 5708 5710 5710 5709 5709 5708 5706
5776 5773 5769 5765 5761 5757 5754 5748 5744 5740 5737 5735 5734 5732 5731 5729 5727 5726 5725 5724 5722 5721 5721 5719 5718 5717 5716 5715 5713 5711 5711 5709 5708 5707 5706 5705 5705 5702 5703 5703 5703 5703 5701
5773 5770 5766 5762 5759 5757 5754 5750 5745 5741 5739 5736 5733 5731 5730 5728 5726 5726 5724 5722 5721 5719 5718 5717 5715 5714 5713 5712 5711 5709 5708 5707 5706 5705 5703 5701 5700 5697 5698 5696 5698 5698 5697
5768 5765 5760 5757 5755 5753 5751 5748 5745 5742 5739 5736 5732 5729 5727 5725 5724 5723 5721 5719 5718 5716 5714 5713 5712 5711 5710 5709 5707 5706 5704 5703 5702 5701 5699 5697 5695 5693 5691 5691 5689 5689 5689
5761 5759 5756 5753 5751 5749 5747 5746 5744 5741 5738 5734 5731 5728 5725 5723 5721 5719 5717 5715 5714 5712 5710 5709 5708 5707 5705 5705 5703 5701 5700 5697 5696 5694 5693 5692 5689 5687 5685 5685 5684 5682 5680
5755 5754 5751 5748 5745 5744 5743 5742 5740 5738 5735 5731 5728 5725 5722 5719 5717 5715 5713 5711 5709 5707 5705 5703 5702 5700 5700 5697 5695 5693 5694 5692 5689 5687 5685 5684 5680 5677 5674 5672 5671 5669 5670
5749 5747 5745 5742 5740 5739 5738 5737 5735 5733 5729 5726 5723 5720 5717 5714 5712 5710 5708 5706 5703 5701 5698 5696 5695 5692 5689 5687 5685 5683 5684 5683 5681 5679 5676 5675 5675 5670 5668 5664 5660 5659 5657
5741 5739 5738 5736 5735 5734 5733 5731 5728 5725 5722 5719 5717 5714 5712 5709 5706 5703 5701 5699 5697 5694 5691 5688 5686 5683 5679 5676 5675 5673 5674 5672 5669 5667 5665 5662 5660 5658 5655 5655 5654 5653 5651
5732 5731 5731 5730 5728 5726 5724 5722 5719 5716 5713 5710 5707 5706 5704 5701 5697 5694 5692 5689 5687 5683 5680 5677 5674 5671 5666 5664 5664 5663 5664 5661 5657 5654 5652 5650 5647 5642 5640 5641 5642 5641 5639
5722 5721 5721 5719 5717 5715 5714 5712 5708 5705 5702 5699 5697 5695 5694 5691 5687 5684 5681 5678 5675 5671 5667 5663 5660 5656 5652 5649 5650 5650 5652 5649 5646 5642 5638 5633 5631 5627 5625 5627 5627 5626 5625
5710 5710 5709 5707 5705 5704 5703 5699 5696 5693 5691 5690 5687 5684 5682 5679 5676 5673 5669 5667 5663 5659 5654 5650 5645 5641 5637 5635 5634 5634 5636 5634 5631 5629 5625 5620 5614 5612 5610 5609 5610 5607 5606
5698 5698 5697 5693 5692 5692 5690 5686 5683 5681 5680 5678 5676 5673 5670 5669 5665 5661 5657 5654 5651 5647 5643 5639 5634 5630 5626 5621 5618 5617 5616 5614 5615 5613 5610 5605 5599 5597 5596 5595 5592 5591 5590
5685 5685 5684 5681 5679 5678 5677 5674 5670 5670 5668 5666 5662 5659 5656 5654 5651 5649 5646 5643 5640 5639 5634 5630 5626 5621 5616 5610 5605 5603 5601 5599 5599 5598 5591 5588 5586 5584 5584 5581 5579 5578 5581
5673 5672 5671 5668 5665 5664 5662 5661 5660 5659 5656 5653 5650 5646 5643 5640 5637 5636 5635 5632 5628 5625 5621 5617 5613 5609 5604 5598 5594 5593 5591 5587 5587 5585 5580 5575 5573 5571 5569 5569 5569 5568 5566
5660 5659 5658 5655 5653 5651 5649 5649 5648 5647 5644 5642 5639 5636 5632 5628 5622 5617 5612 5611 5603 5602 5603 5601 5597 5593 5587 5573 5567 5569 5571 5568 5566 5564 5569 5568 5565 5562 5559 5557 5554 5551 5549
5647 5646 5645 5643 5640 5638 5637 5636 5636 5635 5633 5631 5629 5627 5622 5617 5613 5607 5597 5586 5584 5579 5576 5573 5572 5566 5558 5554 5552 5550 5547 5546 5545 5548 5553 5549 5546 5543 5540 5537 5534 5532 5529